FW7023 Weather Reports


Display with metric or nautical units.
time (UTC)temp
F
wind
direction
speed
MPH
gust
MPH
rain 1hr
in
rain 24hr
in
rain mn
in
humidity
%
barometer
mb
20260906041844 80 160 0.0 0.0 0.00 0.00 0.00 80 1013.0
20260906041339 80 162 0.0 0.0 0.00 0.00 0.00 79 1013.1
20260906040834 80 162 0.0 0.0 0.00 0.00 0.00 79 1013.1
20260906040329 80 162 0.0 0.0 0.00 0.00 0.00 78 1013.1
20260906035824 80 167 0.0 0.0 0.00 0.00 0.00 78 1012.8
20260906035319 80 162 0.0 0.0 0.00 0.00 0.00 78 1013.0
20260906034815 81 162 0.0 0.0 0.00 0.00 0.00 78 1013.1
20260906034315 81 162 0.0 0.0 0.00 0.00 0.00 77 1012.9
20260906033811 81 164 0.0 0.0 0.00 0.00 0.00 77 1012.7
20260906033309 81 164 0.0 0.0 0.00 0.00 0.00 77 1012.6
20260906032807 81 164 0.0 0.0 0.00 0.00 0.00 77 1012.8
20260906032305 81 165 0.0 0.0 0.00 0.00 0.00 76 1012.6
20260906031757 81 165 0.0 0.0 0.00 0.00 0.00 75 1012.7
20260906031253 82 168 0.0 0.0 0.00 0.00 0.00 74 1012.7
20260906030752 82 163 0.0 0.0 0.00 0.00 0.00 74 1012.7
20260906030248 82 163 0.0 0.0 0.00 0.00 0.00 74 1012.5
20260906025747 82 160 0.0 0.0 0.00 0.00 0.00 73 1012.4
20260906025241 83 160 0.0 0.0 0.00 0.00 0.00 73 1012.6
20260906024740 83 162 0.0 0.0 0.00 0.00 0.00 72 1012.4
20260906024239 83 165 0.0 0.0 0.00 0.00 0.00 72 1012.3
20260906023735 83 164 0.0 0.0 0.00 0.00 0.00 71 1012.1
20260906023230 84 165 0.0 0.0 0.00 0.00 0.00 70 1012.2
20260906022726 84 162 0.0 0.0 0.00 0.00 0.00 70 1012.2
20260906022221 84 162 0.0 0.0 0.00 0.00 0.00 70 1012.0
20260906021717 84 156 0.0 0.0 0.00 0.00 0.00 69 1012.0
20260906021216 84 161 0.0 0.0 0.00 0.00 0.00 69 1012.0
20260906020711 85 165 0.0 0.0 0.00 0.00 0.00 69 1011.9
20260906020205 85 163 0.0 0.0 0.00 0.00 0.00 68 1011.7
20260906015700 85 164 0.0 0.0 0.00 0.00 0.00 68 1011.4
20260906015159 86 163 0.0 0.0 0.00 0.00 0.00 66 1011.6
20260906014659 86 163 0.0 0.0 0.00 0.00 0.00 66 1011.6
20260906014154 86 157 0.0 0.0 0.00 0.00 0.00 65 1011.7
20260906013644 86 153 0.0 0.0 0.00 0.00 0.00 66 1011.6
20260906013140 86 169 1.0 1.0 0.00 0.00 0.00 65 1011.4
20260906012639 86 162 0.0 0.0 0.00 0.00 0.00 65 1011.4
20260906012129 86 165 0.0 0.0 0.00 0.00 0.00 66 1011.5
20260906011624 87 161 0.0 0.0 0.00 0.00 0.00 65 1011.5
20260906011124 87 162 0.0 0.0 0.00 0.00 0.00 65 1011.6
20260906010620 88 167 0.0 0.0 0.00 0.00 0.00 63 1011.5
20260906010116 88 151 0.0 0.0 0.00 0.00 0.00 62 1011.4
20260906005610 88 161 0.0 0.0 0.00 0.00 0.00 62 1011.4
20260906005109 88 157 0.0 0.0 0.00 0.00 0.00 62 1011.4
20260906004608 88 163 0.0 0.0 0.00 0.00 0.00 62 1011.1
20260906004103 89 167 0.0 0.0 0.00 0.00 0.00 61 1011.1
20260906003558 89 169 0.0 1.0 0.00 0.00 0.00 60 1011.2
20260906003055 90 162 0.0 0.0 0.00 0.00 0.00 60 1011.1
20260906002555 91 156 0.0 0.0 0.00 0.00 0.00 58 1011.2
20260906002049 91 149 0.0 0.0 0.00 0.00 0.00 57 1011.4
20260906001545 92 159 0.0 0.0 0.00 0.00 0.00 57 1011.4
20260906001039 92 154 0.0 0.0 0.00 0.00 0.00 56 1011.5
20260906000535 93 160 0.0 0.0 0.00 0.00 0.00 55 1011.3
20260906000030 94 167 0.0 1.0 0.00 0.00 0.00 54 1011.2
20260905235529 95 155 0.0 0.0 0.00 0.00 0.00 51 1011.2
20260905235024 96 145 0.0 0.0 0.00 0.00 0.00 47 1011.2
20260905234515 96 160 0.0 0.0 0.00 0.00 0.00 47 1011.1
20260905234015 96 161 0.0 1.0 0.00 0.00 0.00 47 1011.2
20260905233510 96 132 0.0 1.0 0.00 0.00 0.00 47 1011.2
20260905233009 96 154 0.0 0.0 0.00 0.00 0.00 47 1011.0
20260905232505 97 152 0.0 0.0 0.00 0.00 0.00 46 1011.2
20260905232000 97 175 1.0 2.0 0.00 0.00 0.00 45 1011.1
20260905231455 98 147 0.0 0.0 0.00 0.00 0.00 45 1011.1
20260905230952 98 110 1.0 1.0 0.00 0.00 0.00 44 1010.9
20260905230451 98 168 2.0 3.0 0.00 0.00 0.00 43 1011.2
20260905225948 98 159 0.0 0.0 0.00 0.00 0.00 44 1011.1
20260905225444 98 160 0.0 0.0 0.00 0.00 0.00 44 1011.1
20260905224938 98 149 0.0 0.0 0.00 0.00 0.00 45 1011.0
20260905224429 98 185 2.0 2.0 0.00 0.00 0.00 44 1010.7
20260905223928 98 190 0.0 0.0 0.00 0.00 0.00 45 1011.0
20260905223426 98 156 0.0 0.0 0.00 0.00 0.00 45 1010.9
20260905222921 98 164 0.0 0.0 0.00 0.00 0.00 46 1010.9
20260905222420 99 108 1.0 1.0 0.00 0.00 0.00 43 1011.0
20260905221916 99 161 0.0 1.0 0.00 0.00 0.00 43 1010.9
20260905221412 100 123 1.0 2.0 0.00 0.00 0.00 43 1011.3
20260905220908 99 192 2.0 2.0 0.00 0.00 0.00 43 1011.2
20260905220404 99 122 2.0 2.0 0.00 0.00 0.00 44 1011.3
20260905215903 98 159 0.0 0.0 0.00 0.00 0.00 45 1011.3
20260905215359 98 97 1.0 1.0 0.00 0.00 0.00 44 1011.5
20260905214855 98 173 0.0 0.0 0.00 0.00 0.00 45 1011.6
20260905214350 98 123 0.0 1.0 0.00 0.00 0.00 45 1011.5
20260905213845 98 140 1.0 1.0 0.00 0.00 0.00 45 1011.7
20260905213341 99 84 3.0 3.0 0.00 0.00 0.00 44 1011.7
20260905212836 99 152 2.0 2.0 0.00 0.00 0.00 44 1012.1
20260905212335 99 171 1.0 1.0 0.00 0.00 0.00 46 1011.9
20260905211830 98 171 0.0 0.0 0.00 0.00 0.00 46 1011.9
20260905211326 98 60 3.0 3.0 0.00 0.00 0.00 46 1011.8
20260905210822 98 61 2.0 3.0 0.00 0.00 0.00 46 1012.1
20260905210322 98 129 2.0 2.0 0.00 0.00 0.00 45 1012.0
20260905205821 97 134 1.0 2.0 0.00 0.00 0.00 46 1012.0
20260905205315 98 75 4.0 5.0 0.00 0.00 0.00 46 1011.9
20260905204815 98 120 2.0 2.0 0.00 0.00 0.00 47 1012.1
20260905204311 98 146 1.0 1.0 0.00 0.00 0.00 47 1012.1
20260905203810 98 58 1.0 1.0 0.00 0.00 0.00 47 1012.3
20260905203306 98 75 2.0 5.0 0.00 0.00 0.00 46 1012.0
20260905202801 97 149 0.0 1.0 0.00 0.00 0.00 47 1012.2
20260905202256 97 141 1.0 1.0 0.00 0.00 0.00 48 1012.3
20260905201751 96 152 2.0 2.0 0.00 0.00 0.00 48 1012.6
20260905201246 96 129 1.0 1.0 0.00 0.00 0.00 49 1012.6
20260905200741 97 147 0.0 0.0 0.00 0.00 0.00 48 1012.6
20260905200237 97 117 2.0 2.0 0.00 0.00 0.00 47 1012.7
20260905195735 98 161 1.0 1.0 0.00 0.00 0.00 46 1012.5
20260905195230 98 90 1.0 2.0 0.00 0.00 0.00 44 1012.7
20260905194726 98 60 2.0 2.0 0.00 0.00 0.00 42 1012.6
20260905194225 100 96 1.0 1.0 0.00 0.00 0.00 42 1012.8
20260905193719 100 161 0.0 0.0 0.00 0.00 0.00 41 1012.9
20260905193214 100 104 1.0 1.0 0.00 0.00 0.00 40 1012.6
20260905192710 101 122 2.0 2.0 0.00 0.00 0.00 41 1013.0
20260905192206 101 171 0.0 0.0 0.00 0.00 0.00 39 1013.1
20260905191705 100 170 0.0 1.0 0.00 0.00 0.00 43 1013.1
20260905191203 100 160 0.0 0.0 0.00 0.00 0.00 43 1013.2
20260905190702 101 102 1.0 1.0 0.00 0.00 0.00 42 1013.0
20260905190201 101 186 2.0 2.0 0.00 0.00 0.00 40 1013.1
20260905185700 101 168 0.0 0.0 0.00 0.00 0.00 39 1013.4
20260905185155 103 175 0.0 0.0 0.00 0.00 0.00 38 1013.4
20260905184655 103 174 1.0 1.0 0.00 0.00 0.00 37 1013.2
20260905184154 101 175 0.0 0.0 0.00 0.00 0.00 40 1013.2
20260905183648 100 175 0.0 0.0 0.00 0.00 0.00 39 1013.4
20260905183143 100 166 0.0 0.0 0.00 0.00 0.00 41 1013.4
20260905182642 100 169 0.0 0.0 0.00 0.00 0.00 42 1013.6
20260905182142 100 151 1.0 1.0 0.00 0.00 0.00 41 1013.5
20260905181638 100 172 0.0 0.0 0.00 0.00 0.00 42 1013.7
20260905181137 100 173 1.0 2.0 0.00 0.00 0.00 41 1013.6
20260905180632 98 181 0.0 0.0 0.00 0.00 0.00 44 1013.6
20260905180127 98 132 1.0 1.0 0.00 0.00 0.00 44 1013.9
20260905175626 99 149 0.0 0.0 0.00 0.00 0.00 45 1013.9
20260905175122 99 150 1.0 1.0 0.00 0.00 0.00 45 1014.1
20260905174617 99 138 0.0 0.0 0.00 0.00 0.00 44 1013.8
20260905174112 100 175 0.0 0.0 0.00 0.00 0.00 41 1014.1
20260905173609 100 169 0.0 0.0 0.00 0.00 0.00 42 1014.1
20260905173104 100 182 1.0 2.0 0.00 0.00 0.00 40 1014.3
20260905172603 99 210 1.0 2.0 0.00 0.00 0.00 42 1014.3
20260905172058 98 177 1.0 1.0 0.00 0.00 0.00 44 1014.3
20260905171554 98 199 1.0 2.0 0.00 0.00 0.00 44 1014.5
20260905171050 98 192 1.0 1.0 0.00 0.00 0.00 46 1014.6
20260905170547 98 189 0.0 0.0 0.00 0.00 0.00 45 1014.5
20260905170041 98 168 0.0 0.0 0.00 0.00 0.00 48 1014.6
20260905165536 98 165 0.0 0.0 0.00 0.00 0.00 48 1014.6
20260905165031 98 169 0.0 0.0 0.00 0.00 0.00 47 1014.6
20260905164526 97 171 0.0 0.0 0.00 0.00 0.00 49 1014.8
20260905164021 95 169 0.0 1.0 0.00 0.00 0.00 50 1014.6
20260905163517 96 204 3.0 5.0 0.00 0.00 0.00 49 1014.9
20260905163013 95 172 0.0 1.0 0.00 0.00 0.00 50 1014.6
20260905162508 96 131 1.0 1.0 0.00 0.00 0.00 50 1014.4
20260905162003 97 149 0.0 1.0 0.00 0.00 0.00 48 1014.4
20260905161503 98 167 0.0 0.0 0.00 0.00 0.00 46 1014.4
20260905161000 97 128 0.0 0.0 0.00 0.00 0.00 48 1014.4
20260905160454 97 166 0.0 0.0 0.00 0.00 0.00 48 1014.8
20260905155954 96 152 0.0 0.0 0.00 0.00 0.00 49 1014.5
20260905155449 96 139 0.0 0.0 0.00 0.00 0.00 48 1014.4
20260905154947 96 173 0.0 0.0 0.00 0.00 0.00 47 1014.5
20260905154442 95 196 1.0 1.0 0.00 0.00 0.00 48 1014.2
20260905153938 95 161 0.0 0.0 0.00 0.00 0.00 49 1014.3
20260905153434 93 162 0.0 0.0 0.00 0.00 0.00 52 1014.4
20260905152933 91 157 0.0 0.0 0.00 0.00 0.00 59 1014.4
20260905152433 89 161 0.0 0.0 0.00 0.00 0.00 63 1014.3
20260905151928 89 160 0.0 0.0 0.00 0.00 0.00 66 1014.5
20260905151424 89 159 0.0 0.0 0.00 0.00 0.00 66 1014.4
20260905150924 87 162 0.0 0.0 0.00 0.00 0.00 68 1014.4
20260905150419 87 155 0.0 0.0 0.00 0.00 0.00 69 1014.3
20260905145915 87 156 0.0 0.0 0.00 0.00 0.00 68 1014.2
20260905145410 87 154 0.0 0.0 0.00 0.00 0.00 69 1014.0
20260905144909 86 160 0.0 0.0 0.00 0.00 0.00 70 1014.1
20260905144405 87 152 0.0 0.0 0.00 0.00 0.00 70 1014.1
20260905143904 86 153 0.0 0.0 0.00 0.00 0.00 69 1014.0
20260905143358 85 159 0.0 0.0 0.00 0.00 0.00 71 1014.1
20260905142857 85 165 0.0 0.0 0.00 0.00 0.00 71 1014.1
20260905142356 85 154 0.0 0.0 0.00 0.00 0.00 72 1013.9
20260905141852 84 159 0.0 0.0 0.00 0.00 0.00 73 1014.0
20260905141347 83 159 0.0 0.0 0.00 0.00 0.00 76 1014.1
20260905140843 82 163 0.0 0.0 0.00 0.00 0.00 77 1014.1
20260905140337 80 158 0.0 0.0 0.00 0.00 0.00 80 1014.5
20260905135836 79 158 0.0 0.0 0.00 0.00 0.00 82 1014.1
20260905135332 79 163 0.0 0.0 0.00 0.00 0.00 83 1014.2
20260905134827 78 165 0.0 0.0 0.00 0.00 0.00 83 1014.0
20260905134320 78 166 0.0 0.0 0.00 0.00 0.00 84 1014.1
20260905133814 77 166 0.0 0.0 0.00 0.00 0.00 85 1013.8
20260905133310 77 166 0.0 0.0 0.00 0.00 0.00 86 1013.9
20260905132809 76 163 0.0 0.0 0.00 0.00 0.00 88 1013.8
20260905132306 76 162 0.0 0.0 0.00 0.00 0.00 89 1013.8
20260905131759 75 162 0.0 0.0 0.00 0.00 0.00 89 1013.7
20260905131255 75 162 0.0 0.0 0.00 0.00 0.00 90 1013.7
20260905130749 75 162 0.0 0.0 0.00 0.00 0.00 90 1013.6
20260905130248 74 162 0.0 0.0 0.00 0.00 0.00 91 1013.5
20260905125744 74 162 0.0 0.0 0.00 0.00 0.00 92 1013.7
20260905125239 74 162 0.0 0.0 0.00 0.00 0.00 93 1013.4
20260905124736 73 156 0.0 0.0 0.00 0.00 0.00 93 1013.3
20260905124231 73 156 0.0 0.0 0.00 0.00 0.00 94 1013.1
20260905123726 73 156 0.0 0.0 0.00 0.00 0.00 94 1013.2
20260905123223 72 152 0.0 0.0 0.00 0.00 0.00 94 1013.4
20260905122723 72 151 0.0 0.0 0.00 0.00 0.00 94 1013.2
20260905122217 72 151 0.0 0.0 0.00 0.00 0.00 94 1013.4
20260905121712 72 151 0.0 0.0 0.00 0.00 0.00 94 1013.1
20260905121208 72 151 0.0 0.0 0.00 0.00 0.00 94 1013.1
20260905120707 72 150 0.0 0.0 0.00 0.00 0.00 94 1013.3
20260905120202 72 149 0.0 0.0 0.00 0.00 0.00 94 1013.3
20260905115702 72 155 0.0 0.0 0.00 0.00 0.00 94 1013.2
20260905115157 72 150 0.0 0.0 0.00 0.00 0.00 94 1013.1
20260905114656 72 145 0.0 0.0 0.00 0.00 0.00 94 1013.0
20260905114154 72 168 0.0 0.0 0.00 0.00 0.00 95 1013.0
20260905113648 72 175 0.0 0.0 0.00 0.00 0.00 94 1013.1
20260905113145 72 163 0.0 0.0 0.00 0.00 0.00 94 1013.0
20260905112639 72 158 0.0 0.0 0.00 0.00 0.00 94 1012.7
20260905112135 72 140 0.0 0.0 0.00 0.00 0.00 94 1012.8
20260905111635 72 162 0.0 0.0 0.00 0.00 0.00 94 1012.4
20260905111134 72 162 0.0 0.0 0.00 0.00 0.00 94 1012.6
20260905110633 72 162 0.0 0.0 0.00 0.00 0.00 94 1012.4
20260905110128 72 166 0.0 0.0 0.00 0.00 0.00 94 1012.3
20260905105624 72 156 0.0 0.0 0.00 0.00 0.00 94 1012.5
20260905105123 72 156 0.0 0.0 0.00 0.00 0.00 94 1012.4
20260905104618 72 156 0.0 0.0 0.00 0.00 0.00 94 1012.6
20260905104113 72 156 0.0 0.0 0.00 0.00 0.00 94 1012.4
20260905103608 73 156 0.0 0.0 0.00 0.00 0.00 94 1012.3
20260905103105 72 156 0.0 0.0 0.00 0.00 0.00 94 1012.3
20260905102600 72 158 0.0 0.0 0.00 0.00 0.00 94 1012.4
20260905102057 72 158 0.0 0.0 0.00 0.00 0.00 93 1012.4
20260905101554 73 158 0.0 0.0 0.00 0.00 0.00 93 1012.7
20260905101053 73 158 0.0 0.0 0.00 0.00 0.00 93 1012.4
20260905100549 73 158 0.0 0.0 0.00 0.00 0.00 93 1012.5
20260905100049 73 158 0.0 0.0 0.00 0.00 0.00 93 1012.4
20260905095543 73 158 0.0 0.0 0.00 0.00 0.00 93 1012.5
20260905095039 73 157 0.0 0.0 0.00 0.00 0.00 92 1012.6
20260905094534 73 157 0.0 0.0 0.00 0.00 0.00 92 1012.5
20260905094033 73 157 0.0 0.0 0.00 0.00 0.00 92 1012.6
20260905093527 73 157 0.0 0.0 0.00 0.00 0.00 92 1012.5
20260905093024 73 157 0.0 0.0 0.00 0.00 0.00 92 1012.4
20260905092524 73 157 0.0 0.0 0.00 0.00 0.00 92 1012.6
20260905092020 73 156 0.0 0.0 0.00 0.00 0.00 92 1012.4
20260905091513 73 156 0.0 0.0 0.00 0.00 0.00 92 1012.3
20260905091008 73 156 0.0 0.0 0.00 0.00 0.00 92 1012.5
20260905090502 73 157 0.0 0.0 0.00 0.00 0.00 92 1012.5
20260905090002 73 157 0.0 0.0 0.00 0.00 0.00 92 1012.5
20260905085501 73 157 0.0 0.0 0.00 0.00 0.00 92 1012.5
20260905084957 73 157 0.0 0.0 0.00 0.00 0.00 92 1012.3
20260905084456 73 160 0.0 0.0 0.00 0.00 0.00 92 1012.4
20260905083951 73 160 0.0 0.0 0.00 0.00 0.00 92 1012.4
20260905083447 74 161 0.0 0.0 0.00 0.00 0.00 92 1012.4
20260905082943 74 162 0.0 0.0 0.00 0.00 0.00 92 1012.5
20260905082439 74 165 0.0 0.0 0.00 0.00 0.00 92 1012.4
20260905081933 74 165 0.0 0.0 0.00 0.00 0.00 91 1012.5
20260905081428 74 158 0.0 0.0 0.00 0.00 0.00 91 1012.3
20260905080927 74 157 0.0 0.0 0.00 0.00 0.00 91 1012.5
20260905080421 74 156 0.0 0.0 0.00 0.00 0.00 91 1012.4
20260905075920 74 157 0.0 0.0 0.00 0.00 0.00 91 1012.3
20260905075415 74 161 0.0 0.0 0.00 0.00 0.00 91 1012.4
20260905074914 74 157 0.0 0.0 0.00 0.00 0.00 91 1012.4
20260905074410 74 161 0.0 0.0 0.00 0.00 0.00 91 1012.1
20260905073906 74 161 0.0 0.0 0.00 0.00 0.00 91 1012.2
20260905073401 74 161 0.0 0.0 0.00 0.00 0.00 91 1012.4
20260905072856 74 167 0.0 0.0 0.00 0.00 0.00 91 1012.2
20260905072350 75 166 0.0 0.0 0.00 0.00 0.00 90 1012.2
20260905071846 75 169 0.0 0.0 0.00 0.00 0.00 90 1012.4
20260905071337 75 179 0.0 0.0 0.00 0.00 0.00 90 1012.5
20260905070831 75 163 0.0 0.0 0.00 0.00 0.00 90 1012.6
20260905070328 75 160 0.0 0.0 0.00 0.00 0.00 89 1012.7
20260905065827 75 160 0.0 0.0 0.00 0.00 0.00 89 1012.7
20260905065325 75 160 0.0 0.0 0.00 0.00 0.00 88 1012.6
20260905064821 76 158 0.0 0.0 0.00 0.00 0.00 88 1012.4
20260905064316 75 158 0.0 0.0 0.00 0.00 0.00 88 1012.7
20260905063815 75 157 0.0 0.0 0.00 0.00 0.00 88 1012.6
20260905063311 76 159 0.0 0.0 0.00 0.00 0.00 87 1012.4
20260905062807 76 161 0.0 0.0 0.00 0.00 0.00 87 1012.9
20260905062307 76 160 0.0 0.0 0.00 0.00 0.00 87 1012.6
20260905061802 76 152 0.0 0.0 0.00 0.00 0.00 88 1012.6
20260905061256 76 161 0.0 0.0 0.00 0.00 0.00 87 1012.6
20260905060750 76 161 0.0 0.0 0.00 0.00 0.00 87 1012.6
20260905060248 76 161 0.0 0.0 0.00 0.00 0.00 87 1012.5
20260905055746 76 162 0.0 0.0 0.00 0.00 0.00 87 1012.6
20260905055241 76 162 0.0 0.0 0.00 0.00 0.00 87 1012.6
20260905054736 76 162 0.0 0.0 0.00 0.00 0.00 86 1012.6
20260905054232 77 162 0.0 0.0 0.00 0.00 0.00 86 1012.8
20260905053731 77 162 0.0 0.0 0.00 0.00 0.00 86 1012.6
20260905053227 77 162 0.0 0.0 0.00 0.00 0.00 85 1012.7
20260905052726 77 162 0.0 0.0 0.00 0.00 0.00 85 1012.7
20260905052222 77 162 0.0 0.0 0.00 0.00 0.00 85 1012.9
20260905051721 77 162 0.0 0.0 0.00 0.00 0.00 86 1012.6
20260905051218 77 165 0.0 0.0 0.00 0.00 0.00 86 1012.6
20260905050714 77 164 0.0 0.0 0.00 0.00 0.00 85 1012.9
20260905050211 77 163 0.0 0.0 0.00 0.00 0.00 85 1012.7
20260905045710 77 163 0.0 0.0 0.00 0.00 0.00 85 1012.5
20260905045206 78 162 0.0 0.0 0.00 0.00 0.00 84 1012.6
20260905044701 78 166 0.0 0.0 0.00 0.00 0.00 84 1012.6
20260905044200 78 166 0.0 0.0 0.00 0.00 0.00 83 1012.7
20260905043659 78 166 0.0 0.0 0.00 0.00 0.00 83 1012.6
20260905043154 78 166 0.0 0.0 0.00 0.00 0.00 83 1012.5
20260905042649 78 166 0.0 0.0 0.00 0.00 0.00 83 1012.6
20260905042148 78 166 0.0 0.0 0.00 0.00 0.00 82 1012.8